#timestamp,LO_Frequency,Hit,StdDev 
1460228415.2,286047006.3,N
1460228435.1,286047005.0,N
1460228436.0,286047005.0,N
1460228455.8,286047003.0,N
1460228475.6,286047005.4,N
1460228495.5,286047006.4,N
1460228515.3,286047006.9,N
1460228535.1,286047005.1,N
1460228555.9,286047005.0,N
1460228575.7,286047005.2,N
1460228595.5,286047007.0,N
1460228615.4,286047004.8,N
1460228635.2,286047004.0,N
1460228655.0,286047002.9,N
1460228655.9,286047002.9,N
1460228675.8,286047000.0,N
1460228695.6,286047000.6,N
1460228715.4,286046996.6,N
1460228735.2,286046996.2,N
1460228755.1,286046994.7,N
1460228756.0,286046994.7,N
1460228775.8,286046993.9,N
1460228795.6,286046993.8,N
1460228815.5,286046993.4,N
1460228835.3,286046993.3,N
1460228855.1,286046994.5,N
1460228875.9,286046995.4,N
1460228895.7,286046995.4,N
1460228915.5,286046995.4,N
1460228935.4,286046996.2,N
1460228955.2,286046997.8,N
1460228975.0,286047002.8,N
1460228975.9,286047002.8,N
1460228995.8,286047000.8,N
1460229015.6,286047001.0,N
1460229035.4,286047001.5,N
1460229055.3,286047003.1,N
1460229075.1,286047003.5,N
1460229076.0,286047003.5,N
1460229095.8,286047003.2,N
1460229115.6,286047005.1,N
1460229135.5,286047005.9,N
1460229155.3,286047008.6,N
1460229175.1,286047008.0,N
1460229195.9,286047005.4,N
1460229215.7,286047006.9,N
1460229235.5,286047008.6,N
1460229255.4,286047009.0,N
1460229275.2,286047007.8,N
1460229295.0,286047011.7,N
1460229295.9,286047011.7,N
1460229315.8,286047011.1,N
1460229335.6,286047011.5,N
1460229355.4,286047013.5,N
1460229375.3,286047010.7,N
1460229395.1,286047007.9,N
1460229396.0,286047007.9,N
1460229415.8,286047009.0,N
1460229435.7,286047004.8,N
1460229455.5,286047003.9,N
1460229475.3,286047002.7,N
1460229495.1,286047000.5,N
1460229515.9,286047000.7,N
1460229535.7,286047001.1,N
1460229555.5,286047002.7,N
1460229575.4,286047000.3,N
1460229595.2,286047000.2,N
1460229615.0,286047000.0,N
1460229615.9,286047000.0,N
1460229635.8,286047000.3,N
1460229655.6,286046999.8,N
1460229675.4,286047000.5,N
1460229695.3,286047001.1,N
1460229715.1,286047002.1,N
1460229716.0,286047002.1,N
1460229735.8,286047001.6,N
1460229755.7,286047003.9,N
1460229775.5,286047004.7,N
1460229795.3,286047007.1,N
1460229815.2,286047008.3,N
1460229835.9,286047007.9,N
1460229855.7,286047008.1,N
1460229875.6,286047008.5,N
1460229895.4,286047006.7,N
1460229915.2,286047006.3,N
1460229935.0,286047005.3,N
1460229935.9,286047005.3,N
1460229955.8,286047003.4,N
1460229975.6,286047004.3,N
1460229995.4,286047004.3,N
1460230015.3,286047001.4,N
1460230035.1,286047002.0,N
1460230055.8,286047001.9,N
1460230075.7,286047004.3,N
1460230095.5,286047002.3,N
1460230115.3,286047002.7,N
1460230135.2,286047001.3,N
1460230155.9,286047004.4,N
1460230175.7,286047005.6,N
1460230195.6,286047006.3,N
1460230215.4,286047009.1,Y
1460230235.2,286047004.2,P
1460230255.1,286047004.0,P
1460230256.0,286047004.0,P
1460230275.8,286047001.9,Y
1460230295.6,286047001.2,P
1460230315.5,286047000.3,N
1460230335.3,286047000.4,N
1460230355.1,286046998.8,N
1460230375.9,286047000.5,N
1460230395.7,286046999.0,N
1460230415.5,286047004.3,N
1460230435.3,286047001.4,N
1460230455.2,286047002.9,N
1460230475.0,286047005.2,N
1460230475.9,286047005.2,N
1460230495.7,286047005.4,N
1460230515.6,286047003.1,N
1460230535.4,286047005.9,N
1460230555.2,286047005.5,N
1460230575.1,286047004.7,N
1460230576.0,286047004.7,N
1460230595.8,286047004.7,N
1460230615.6,286047005.2,N
1460230635.5,286047003.2,N
1460230655.3,286047005.8,N
1460230675.1,286047003.8,N
1460230695.8,286046999.8,N
1460230715.7,286047000.6,N
1460230735.5,286047000.5,N
1460230755.3,286047002.5,N
1460230775.2,286047000.1,N
1460230795.9,286047000.8,N
1460230815.7,286046998.4,N
1460230835.6,286046999.8,N
1460230855.4,286047000.4,N
1460230875.2,286046999.1,N
1460230895.1,286046997.1,N
1460230896.0,286046997.1,N
1460230915.8,286046998.4,N
1460230935.6,286047001.2,N
1460230955.5,286046998.8,N
1460230975.3,286046998.5,N
1460230995.1,286047000.4,N
1460231015.8,286046998.1,N
1460231035.7,286046998.9,N
1460231055.5,286047002.6,N
1460231075.3,286047004.8,N
1460231095.2,286047005.2,N
1460231115.9,286047006.7,N
1460231135.7,286047006.9,N
1460231155.6,286047005.6,N
1460231175.4,286047002.3,N
1460231195.2,286046996.6,N
1460231215.1,286047000.8,N
1460231216.0,286047000.8,N
1460231235.8,286047000.4,N
1460231255.6,286046997.8,N
1460231275.5,286046996.0,N
1460231295.3,286046994.7,N
1460231315.1,286046989.4,Y
1460231335.9,286046986.5,P
1460231355.7,286046983.1,N
1460231375.5,286046980.9,N
1460231395.3,286046981.2,N
1460231415.2,286046979.5,N
1460231435.0,286046977.5,Y
1460231435.9,286046977.5,P
1460231455.8,286046992.4,N
1460231475.6,286046994.7,N
1460231495.4,286046996.3,N
1460231515.2,286046995.8,N
1460231535.1,286046996.7,N
1460231536.0,286046996.7,N
1460231555.8,286046997.7,N
1460231575.6,286046999.0,N
1460231595.5,286046998.5,N
1460231615.3,286046998.8,N
1460231635.1,286046995.3,N
1460231655.9,286046997.2,N
1460231675.7,286046997.0,N
1460231695.5,286046998.4,N
1460231715.4,286046998.2,N
1460231735.2,286046998.1,N
1460231755.0,286046999.0,N
1460231755.9,286046999.0,N
1460231775.8,286047000.6,N
1460231795.6,286046998.3,N
1460231815.4,286046998.5,N
1460231835.2,286047001.1,N
1460231855.1,286046998.2,N
1460231856.0,286046998.2,N
1460231875.8,286047002.8,N
1460231895.6,286046998.1,N
1460231915.5,286046998.8,N
1460231935.3,286046998.1,N
1460231955.1,286046999.0,N
1460231975.9,286046999.3,N
1460231995.7,286046997.1,N
